Location: Caltech
(34.1382°N, 118.1253°W)
Time: 16:10:59
(UTC-08:00)

Iridium 75 - Visible Passes

Search period start: 19 November 2017 00:00
Search period end: 29 November 2017 00:00
Orbit: 776 x 779 km, 86.4° (Epoch: 19 November)

Date Brightness Start Highest point End Pass type
(mag) Time Alt. Az. Time Alt. Az. Time Alt. Az.
19 Nov 8.2 05:53:39 10° SE 05:58:08 30° E 06:02:38 10° NNE visible
19 Nov 5.9 18:07:13 10° N 18:12:27 73° E 18:17:38 10° S visible
20 Nov 8.9 05:21:51 10° ESE 05:24:53 16° E 05:27:55 10° NE visible
20 Nov 6.5 17:34:02 10° NNE 17:38:51 37° E 17:43:38 10° SSE visible
20 Nov 8.5 19:15:31 10° NW 19:19:14 20° W 19:22:56 10° SW visible
21 Nov 7.4 18:41:08 10° NNW 18:45:56 38° W 18:50:43 10° SSW visible
22 Nov 7.3 05:53:11 10° SSE 05:58:07 45° E 06:03:04 10° NNE visible
22 Nov 6.2 18:07:18 10° N 18:12:31 76° W 18:17:42 10° S visible
23 Nov 8.5 05:20:45 10° SE 05:24:47 23° E 05:28:51 10° NNE visible
23 Nov 6.1 17:33:52 10° N 17:38:59 56° E 17:44:06 10° SSE visible
23 Nov 9.0 19:16:43 10° NW 19:19:07 13° W 19:21:31 10° WSW visible
24 Nov 9.1 04:49:45 10° E 04:51:35 12° E 04:53:26 10° ENE visible
24 Nov 8.2 18:41:39 10° NNW 18:45:54 26° W 18:50:08 10° SW visible
25 Nov 6.5 05:52:59 10° S 05:58:09 68° E 06:03:20 10° N visible
25 Nov 7.0 18:07:32 10° NNW 18:12:34 50° W 18:17:34 10° SSW visible
26 Nov 7.8 05:20:05 10° SSE 05:24:45 34° E 05:29:26 10° NNE visible
26 Nov 6.0 17:33:51 10° N 17:39:06 84° E 17:44:19 10° S visible
27 Nov 8.8 04:48:02 10° ESE 04:51:28 18° E 04:54:55 10° NE visible
27 Nov 8.8 18:42:28 10° NW 18:45:49 17° W 18:49:10 10° WSW visible
28 Nov 6.0 05:53:00 10° S 05:58:12 81° W 06:03:27 10° N visible
28 Nov 7.8 18:07:54 10° NNW 18:12:33 33° W 18:17:10 10° SSW visible
